�������l�o���
Date,Time,MP-1(��Sv/h),MP-2(��Sv/h),MP-3(��Sv/h),MP-4(��Sv/h),MP-5(��Sv/h),MP-6(��Sv/h),MP-7(��Sv/h),����,����(m/s),���J
2021/03/14,00:00,0.166,0.152,0.240,0.230,0.231,0.129,0.082,���k��,13.6,��
2021/03/14,00:10,0.166,0.150,0.240,0.230,0.230,0.130,0.083,���k��,13.3,��
2021/03/14,00:20,0.168,0.150,0.240,0.231,0.232,0.130,0.082,���k��,13.6,��
2021/03/14,00:30,0.166,0.150,0.241,0.230,0.232,0.130,0.082,���k��,12.9,��
2021/03/14,00:40,0.166,0.149,0.240,0.230,0.231,0.130,0.081,���k��,12.0,��
2021/03/14,00:50,0.167,0.149,0.241,0.230,0.232,0.129,0.082,���k��,14.8,��
2021/03/14,01:00,0.167,0.149,0.242,0.230,0.230,0.130,0.082,���k��,12.9,��
2021/03/14,01:10,0.167,0.149,0.242,0.230,0.231,0.130,0.081,���k��,12.9,��
2021/03/14,01:20,0.167,0.150,0.241,0.231,0.232,0.130,0.082,���k��,12.6,��
2021/03/14,01:30,0.167,0.150,0.242,0.230,0.232,0.129,0.082,���k��,14.0,��
2021/03/14,01:40,0.167,0.150,0.241,0.230,0.231,0.130,0.082,���k��,16.0,��
2021/03/14,01:50,0.168,0.148,0.241,0.230,0.232,0.130,0.081,���k��,12.9,��
2021/03/14,02:00,0.167,0.149,0.241,0.230,0.230,0.131,0.081,���k��,10.9,��
2021/03/14,02:10,0.167,0.149,0.242,0.231,0.232,0.130,0.082,���k��,10.7,��
2021/03/14,02:20,0.168,0.149,0.243,0.232,0.233,0.131,0.082,���k��,10.9,��
2021/03/14,02:30,0.168,0.150,0.242,0.233,0.231,0.129,0.082,���k��,11.8,��
2021/03/14,02:40,0.166,0.149,0.243,0.232,0.232,0.130,0.081,�k��,12.2,��
2021/03/14,02:50,0.168,0.150,0.242,0.230,0.231,0.130,0.081,���k��,11.1,��
2021/03/14,03:00,0.167,0.150,0.243,0.232,0.231,0.130,0.082,���k��,9.3,��
2021/03/14,03:10,0.167,0.150,0.241,0.230,0.232,0.130,0.082,��,16.2,��
2021/03/14,03:20,0.168,0.148,0.242,0.231,0.232,0.130,0.082,���k��,13.7,��
2021/03/14,03:30,0.167,0.149,0.242,0.231,0.231,0.131,0.082,���k��,18.6,��
2021/03/14,03:40,0.167,0.150,0.244,0.231,0.233,0.131,0.082,��,16.7,�L
2021/03/14,03:50,0.168,0.149,0.243,0.232,0.232,0.132,0.081,��,16.4,��
2021/03/14,04:00,0.169,0.148,0.245,0.232,0.232,0.132,0.082,���k��,13.9,��
2021/03/14,04:10,0.166,0.150,0.244,0.232,0.233,0.132,0.082,���k��,15.6,��
2021/03/14,04:20,0.169,0.150,0.243,0.230,0.232,0.131,0.082,��,14.9,��
2021/03/14,04:30,0.168,0.150,0.244,0.232,0.232,0.132,0.082,��,17.9,��
2021/03/14,04:40,0.168,0.150,0.244,0.232,0.232,0.131,0.082,��,19.4,��
2021/03/14,04:50,0.169,0.151,0.242,0.232,0.232,0.132,0.081,��,21.1,��
2021/03/14,05:00,0.169,0.151,0.244,0.234,0.232,0.132,0.082,��,19.3,��
2021/03/14,05:10,0.168,0.149,0.245,0.232,0.232,0.133,0.082,���k��,18.9,��
2021/03/14,05:20,0.168,0.150,0.244,0.231,0.232,0.131,0.081,��,18.0,��
2021/03/14,05:30,0.168,0.150,0.244,0.233,0.232,0.131,0.082,���k��,12.6,��
2021/03/14,05:40,0.168,0.151,0.245,0.233,0.233,0.133,0.081,��,16.0,��
2021/03/14,05:50,0.167,0.151,0.246,0.232,0.232,0.132,0.082,��,19.3,��
2021/03/14,06:00,0.169,0.150,0.245,0.232,0.232,0.132,0.082,��,11.7,��
2021/03/14,06:10,0.168,0.151,0.245,0.233,0.234,0.132,0.081,���k��,11.2,��
2021/03/14,06:20,0.169,0.151,0.244,0.233,0.233,0.132,0.082,�k��,7.8,��
2021/03/14,06:30,0.168,0.150,0.245,0.232,0.233,0.133,0.082,��,7.0,��
2021/03/14,06:40,0.169,0.149,0.244,0.232,0.234,0.132,0.082,�k��,6.8,��
2021/03/14,06:50,0.168,0.151,0.244,0.232,0.233,0.132,0.081,���k��,10.9,��
2021/03/14,07:00,0.169,0.150,0.245,0.232,0.233,0.132,0.081,��,2.9,��
2021/03/14,07:10,0.168,0.150,0.245,0.233,0.234,0.132,0.081,�쐼,4.2,��
2021/03/14,07:20,0.169,0.151,0.244,0.232,0.233,0.132,0.081,���k��,7.7,��
2021/03/14,07:30,0.169,0.151,0.244,0.231,0.230,0.131,0.082,���쐼,9.8,��
2021/03/14,07:40,0.168,0.151,0.244,0.232,0.233,0.132,0.082,��,8.7,��
2021/03/14,07:50,0.169,0.151,0.245,0.231,0.232,0.133,0.081,��,10.6,��
2021/03/14,08:00,0.168,0.150,0.243,0.232,0.232,0.132,0.082,��,8.8,��
2021/03/14,08:10,0.167,0.150,0.245,0.232,0.233,0.131,0.082,��,11.2,��
2021/03/14,08:20,0.169,0.150,0.244,0.232,0.234,0.132,0.082,���k��,7.5,��
2021/03/14,08:30,0.169,0.150,0.244,0.231,0.233,0.132,0.082,���k��,10.1,��
2021/03/14,08:40,0.168,0.150,0.244,0.233,0.234,0.133,0.081,��,9.5,��
2021/03/14,08:50,0.168,0.150,0.245,0.233,0.232,0.132,0.082,��,10.0,��
2021/03/14,09:00,0.169,0.151,0.244,0.233,0.234,0.133,0.081,��,14.6,��
2021/03/14,09:10,0.169,0.150,0.244,0.233,0.232,0.133,0.082,��,14.0,��
2021/03/14,09:20,0.170,0.150,0.246,0.233,0.232,0.133,0.082,�k��,7.3,��
2021/03/14,09:30,0.170,0.151,0.247,0.233,0.234,0.131,0.082,���k��,10.6,��
2021/03/14,09:40,0.168,0.150,0.245,0.234,0.233,0.132,0.082,���k��,8.1,��
2021/03/14,09:50,0.169,0.149,0.245,0.234,0.231,0.132,0.082,�k��,8.7,��
2021/03/14,10:00,0.169,0.151,0.246,0.232,0.235,0.132,0.082,�k��,6.5,��
2021/03/14,10:10,0.168,0.151,0.245,0.233,0.233,0.132,0.082,�k��,8.4,��
2021/03/14,10:20,0.169,0.151,0.245,0.233,0.233,0.131,0.082,�k��,10.6,��
2021/03/14,10:30,0.169,0.151,0.246,0.233,0.235,0.133,0.082,�k��,10.1,��
2021/03/14,10:40,0.169,0.151,0.244,0.232,0.232,0.132,0.082,���k��,9.2,��
2021/03/14,10:50,0.170,0.150,0.245,0.233,0.234,0.132,0.082,�k��,11.5,��
2021/03/14,11:00,0.168,0.150,0.245,0.233,0.232,0.133,0.081,���k��,15.7,��
2021/03/14,11:10,0.169,0.150,0.246,0.233,0.233,0.132,0.082,�k��,8.6,��
2021/03/14,11:20,0.169,0.151,0.245,0.233,0.233,0.133,0.082,�k��,12.0,��
2021/03/14,11:30,0.168,0.151,0.246,0.234,0.233,0.132,0.082,�k��,11.8,��
2021/03/14,11:40,0.170,0.150,0.246,0.233,0.235,0.132,0.082,���k��,14.6,��
2021/03/14,11:50,0.169,0.151,0.244,0.233,0.231,0.133,0.081,���k��,11.2,��
2021/03/14,12:00,0.169,0.151,0.246,0.234,0.232,0.133,0.082,���k��,13.9,��
2021/03/14,12:10,0.168,0.150,0.245,0.233,0.233,0.133,0.082,���k��,12.6,��
2021/03/14,12:20,0.169,0.150,0.245,0.234,0.233,0.133,0.082,�k��,14.4,��
2021/03/14,12:30,0.170,0.150,0.246,0.233,0.232,0.133,0.082,���k��,19.8,��
2021/03/14,12:40,0.169,0.151,0.246,0.233,0.233,0.132,0.081,���k��,13.9,��
2021/03/14,12:50,0.169,0.150,0.247,0.233,0.233,0.133,0.082,���k��,12.5,��
2021/03/14,13:00,0.170,0.152,0.247,0.233,0.232,0.132,0.082,���k��,10.4,��
2021/03/14,13:10,0.170,0.152,0.247,0.234,0.234,0.133,0.081,���k��,10.7,��
2021/03/14,13:20,0.170,0.151,0.246,0.234,0.233,0.134,0.082,���k��,11.2,��
2021/03/14,13:30,0.170,0.150,0.246,0.234,0.235,0.133,0.082,���k��,12.9,��
2021/03/14,13:40,0.170,0.151,0.246,0.233,0.233,0.132,0.081,�k��,12.9,��
2021/03/14,13:50,0.170,0.150,0.247,0.233,0.234,0.133,0.082,���k��,8.8,��
2021/03/14,14:00,0.170,0.151,0.248,0.234,0.234,0.133,0.082,���k��,10.9,��
2021/03/14,14:10,0.170,0.151,0.248,0.235,0.233,0.133,0.082,���k��,10.4,��
2021/03/14,14:20,0.171,0.150,0.247,0.234,0.234,0.133,0.082,���k��,8.8,��
2021/03/14,14:30,0.168,0.151,0.247,0.234,0.232,0.132,0.082,���k��,12.0,��
2021/03/14,14:40,0.169,0.151,0.247,0.234,0.233,0.133,0.081,���k��,8.8,��
2021/03/14,14:50,0.170,0.150,0.247,0.235,0.234,0.133,0.083,���k��,8.5,��
2021/03/14,15:00,0.170,0.152,0.247,0.234,0.234,0.133,0.082,���k��,4.0,��
2021/03/14,15:10,0.171,0.151,0.248,0.233,0.233,0.134,0.081,���k��,7.1,��
2021/03/14,15:20,0.169,0.152,0.247,0.235,0.234,0.133,0.082,���k��,8.1,��
2021/03/14,15:30,0.170,0.151,0.247,0.234,0.233,0.133,0.082,���k��,12.0,��
2021/03/14,15:40,0.170,0.151,0.246,0.234,0.233,0.133,0.081,���k��,12.2,��
2021/03/14,15:50,0.168,0.152,0.245,0.234,0.235,0.133,0.082,���k��,10.4,��
2021/03/14,16:00,0.170,0.151,0.247,0.234,0.233,0.134,0.081,���k��,10.0,��
2021/03/14,16:10,0.170,0.151,0.248,0.235,0.233,0.134,0.082,���k��,11.5,��
2021/03/14,16:20,0.171,0.152,0.248,0.235,0.234,0.133,0.082,���k��,10.1,��
2021/03/14,16:30,0.170,0.152,0.247,0.234,0.234,0.133,0.082,���k��,10.6,��
2021/03/14,16:40,0.171,0.151,0.248,0.234,0.233,0.133,0.082,���k��,8.7,��
2021/03/14,16:50,0.170,0.151,0.248,0.235,0.235,0.133,0.082,�k��,8.8,��
2021/03/14,17:00,0.172,0.152,0.248,0.235,0.233,0.134,0.081,���k��,7.6,��
2021/03/14,17:10,0.171,0.152,0.247,0.235,0.234,0.134,0.082,�k��,6.6,��
2021/03/14,17:20,0.170,0.151,0.248,0.235,0.234,0.134,0.083,���k��,8.8,��
2021/03/14,17:30,0.170,0.151,0.248,0.233,0.232,0.133,0.081,���k��,10.9,��
2021/03/14,17:40,0.170,0.151,0.248,0.235,0.234,0.133,0.082,���k��,8.4,��
2021/03/14,17:50,0.170,0.152,0.248,0.236,0.233,0.134,0.082,���k��,7.9,��
2021/03/14,18:00,0.169,0.151,0.247,0.234,0.232,0.134,0.082,���k��,7.3,��
2021/03/14,18:10,0.169,0.152,0.247,0.235,0.235,0.134,0.081,�k��,7.3,��
2021/03/14,18:20,0.170,0.151,0.246,0.235,0.233,0.134,0.082,���k��,8.5,��
2021/03/14,18:30,0.171,0.152,0.246,0.234,0.233,0.133,0.082,�k��,6.2,��
2021/03/14,18:40,0.170,0.151,0.247,0.233,0.235,0.133,0.081,�k��,5.4,��
2021/03/14,18:50,0.171,0.151,0.249,0.234,0.234,0.133,0.082,�k,6.6,��
2021/03/14,19:00,0.170,0.151,0.246,0.235,0.233,0.134,0.082,�k��,4.4,��
2021/03/14,19:10,0.170,0.153,0.248,0.235,0.234,0.132,0.081,�k��,3.2,��
2021/03/14,19:20,0.169,0.151,0.247,0.234,0.233,0.132,0.082,�k�k��,3.0,��
2021/03/14,19:30,0.171,0.151,0.247,0.236,0.232,0.134,0.082,�k��,4.5,��
2021/03/14,19:40,0.170,0.152,0.247,0.235,0.235,0.133,0.082,�k��,7.3,��
2021/03/14,19:50,0.170,0.152,0.248,0.235,0.233,0.134,0.082,�k�k��,7.3,��
2021/03/14,20:00,0.170,0.151,0.247,0.235,0.233,0.133,0.082,�k��,6.0,��
2021/03/14,20:10,0.170,0.151,0.247,0.234,0.234,0.133,0.082,�k�k��,6.6,��
2021/03/14,20:20,0.171,0.151,0.246,0.235,0.233,0.133,0.082,�k�k��,8.1,��
2021/03/14,20:30,0.170,0.152,0.247,0.235,0.233,0.133,0.083,�k��,7.9,��
2021/03/14,20:40,0.170,0.151,0.248,0.236,0.234,0.133,0.082,�k��,7.3,��
2021/03/14,20:50,0.171,0.152,0.247,0.235,0.231,0.134,0.082,���k��,6.8,��
2021/03/14,21:00,0.171,0.151,0.247,0.234,0.233,0.134,0.081,���k��,9.2,��
2021/03/14,21:10,0.172,0.151,0.248,0.234,0.233,0.134,0.082,��,12.8,��
2021/03/14,21:20,0.171,0.152,0.248,0.234,0.233,0.134,0.082,��,17.0,��
2021/03/14,21:30,0.172,0.152,0.248,0.234,0.233,0.133,0.082,��,14.4,��
2021/03/14,21:40,0.171,0.151,0.247,0.234,0.233,0.134,0.083,���k��,12.3,��
2021/03/14,21:50,0.170,0.153,0.247,0.235,0.235,0.134,0.083,��,13.4,��
2021/03/14,22:00,0.170,0.152,0.248,0.234,0.235,0.134,0.082,��,13.7,��
2021/03/14,22:10,0.171,0.152,0.248,0.236,0.235,0.134,0.083,��,14.5,��
2021/03/14,22:20,0.171,0.152,0.247,0.236,0.235,0.134,0.082,���k��,12.6,��
2021/03/14,22:30,0.170,0.153,0.247,0.235,0.233,0.135,0.083,���k��,12.0,��
2021/03/14,22:40,0.171,0.153,0.249,0.235,0.234,0.134,0.083,��,14.6,��
2021/03/14,22:50,0.172,0.153,0.248,0.235,0.235,0.134,0.083,��,16.3,��
2021/03/14,23:00,0.170,0.152,0.248,0.235,0.234,0.134,0.082,��,13.6,��
2021/03/14,23:10,0.171,0.151,0.248,0.235,0.234,0.134,0.082,��,16.8,��
2021/03/14,23:20,0.172,0.152,0.249,0.236,0.235,0.134,0.083,��,14.0,��
2021/03/14,23:30,0.171,0.152,0.249,0.237,0.235,0.134,0.082,��,17.0,��
2021/03/14,23:40,0.171,0.152,0.248,0.235,0.235,0.134,0.083,��,13.9,��
2021/03/14,23:50,0.171,0.153,0.248,0.235,0.236,0.134,0.082,��,14.8,��
